This is the latest recevied weather packets stored in our database for station/object DL3NDS-WX. If no packets are shown the sender has not sent any weather packets the latest 1 day(s).
| Time | Temp. | Humidity | Pressure | Rain* | Wind** | Luminosity | Snow |
|---|---|---|---|---|---|---|---|
| 1777992858 | 18.89° C | 64% | 1007.8 hPa | 0 mm | 2.68 m/s, 30° | 125 W/m² | - |
| 1777992796 | 18.89° C | 64% | 1007.9 hPa | 0 mm | 2.68 m/s, 62° | 123 W/m² | - |
| 1777992740 | 18.89° C | 64% | 1007.9 hPa | 0 mm | 2.24 m/s, 16° | 123 W/m² | - |
| 1777992673 | 18.89° C | 64% | 1007.9 hPa | 0 mm | 1.34 m/s, 41° | 121 W/m² | - |
| 1777992613 | 18.89° C | 64% | 1007.9 hPa | 0 mm | 0.89 m/s, 29° | 120 W/m² | - |
| 1777992552 | 18.89° C | 63% | 1007.9 hPa | 0 mm | 1.34 m/s, 15° | 121 W/m² | - |
| 1777992490 | 18.89° C | 63% | 1007.9 hPa | 0 mm | 1.79 m/s, 13° | 123 W/m² | - |
| 1777992429 | 18.89° C | 63% | 1007.9 hPa | 0 mm | 2.24 m/s, 25° | 128 W/m² | - |
| 1777992372 | 18.89° C | 63% | 1007.9 hPa | 0 mm | 1.34 m/s, 22° | 134 W/m² | - |
| 1777992306 | 18.89° C | 64% | 1008 hPa | 0 mm | 0.45 m/s, 26° | 141 W/m² | - |
| 1777992245 | 18.89° C | 64% | 1008 hPa | 0 mm | 0.89 m/s, 339° | 149 W/m² | - |
| 1777992184 | 18.89° C | 64% | 1007.9 hPa | 0 mm | 0.89 m/s, 35° | 158 W/m² | - |
| 1777992122 | 18.89° C | 63% | 1007.9 hPa | 0 mm | 0.89 m/s, 25° | 160 W/m² | - |
| 1777992061 | 18.89° C | 63% | 1008 hPa | 0 mm | 1.34 m/s, 41° | 160 W/m² | - |
| 1777992001 | 18.89° C | 62% | 1008 hPa | 0 mm | 1.79 m/s, 27° | 158 W/m² | - |
| 1777991939 | 19.44° C | 62% | 1007.9 hPa | 0 mm | 1.79 m/s, 24° | 158 W/m² | - |
| 1777991877 | 19.44° C | 62% | 1007.9 hPa | 0 mm | 1.34 m/s, 327° | 155 W/m² | - |
| 1777991816 | 19.44° C | 62% | 1007.9 hPa | 0 mm | 0.89 m/s, 323° | 155 W/m² | - |
| 1777991757 | 19.44° C | 62% | 1008 hPa | 0 mm | 0.89 m/s, 32° | 153 W/m² | - |
| 1777991694 | 19.44° C | 62% | 1008 hPa | 0 mm | 1.34 m/s, 50° | 155 W/m² | - |
| 1777991632 | 19.44° C | 61% | 1007.8 hPa | 0 mm | 0.89 m/s, 323° | 158 W/m² | - |
| 1777991571 | 19.44° C | 61% | 1007.9 hPa | 0 mm | 1.34 m/s, 356° | 171 W/m² | - |
| 1777991509 | 19.44° C | 61% | 1007.9 hPa | 0 mm | 1.34 m/s, 1° | 176 W/m² | - |
| 1777991449 | 19.44° C | 62% | 1008 hPa | 0 mm | 1.34 m/s, 322° | 181 W/m² | - |
| 1777991383 | 19.44° C | 62% | 1007.9 hPa | 0 mm | 1.34 m/s, 357° | 183 W/m² | - |
* Rain latest hour (hover to see other rain measurements)
** Current wind speed in m/s (hover to see current wind gust speed)